| time (UTC) | temp F | wind direction | speed MPH | gust MPH | rain 1hr in | rain 24hr in | rain mn in | humidity % | barometer mb |
| 20260901234233 | 81 | 166 | 18.0 | 24.0 | 0.00 | 0.00 | 0.00 | 30 | 1015.3 |
| 20260901233728 | 81 | 237 | 0.0 | 1.0 | 0.00 | 0.00 | 0.00 | 31 | 1015.2 |
| 20260901233225 | 81 | 300 | 0.0 | 1.0 | 0.00 | 0.00 | 0.00 | 33 | 1015.4 |
| 20260901232724 | 84 | 191 | 0.0 | 1.0 | 0.00 | 0.00 | 0.00 | 30 | 1014.9 |
| 20260901232220 | 84 | 346 | 4.0 | 6.0 | 0.00 | 0.00 | 0.00 | 28 | 1014.4 |
| 20260901231716 | 85 | 337 | 5.0 | 6.0 | 0.00 | 0.00 | 0.00 | 27 | 1014.3 |
| 20260901231212 | 85 | 335 | 5.0 | 7.0 | 0.00 | 0.00 | 0.00 | 27 | 1014.2 |
| 20260901230708 | 85 | 321 | 7.0 | 9.0 | 0.00 | 0.00 | 0.00 | 26 | 1014.2 |
| 20260901230207 | 86 | 288 | 0.0 | 0.0 | 0.00 | 0.00 | 0.00 | 29 | 1014.3 |
| 20260901225702 | 86 | 244 | 1.0 | 1.0 | 0.00 | 0.00 | 0.00 | 28 | 1013.9 |
| 20260901225157 | 85 | 258 | 1.0 | 1.0 | 0.00 | 0.00 | 0.00 | 26 | 1014.2 |
| 20260901224653 | 85 | 272 | 3.0 | 3.0 | 0.00 | 0.00 | 0.00 | 28 | 1014.3 |
| 20260901224149 | 85 | 289 | 4.0 | 5.0 | 0.00 | 0.00 | 0.00 | 29 | 1014.3 |
| 20260901223644 | 85 | 280 | 2.0 | 2.0 | 0.00 | 0.00 | 0.00 | 31 | 1014.2 |
| 20260901223139 | 85 | 261 | 3.0 | 3.0 | 0.00 | 0.00 | 0.00 | 31 | 1014.3 |
| 20260901222636 | 86 | 252 | 2.0 | 2.0 | 0.00 | 0.00 | 0.00 | 31 | 1014.4 |
| 20260901222132 | 86 | 248 | 1.0 | 1.0 | 0.00 | 0.00 | 0.00 | 31 | 1014.1 |
| 20260901221627 | 87 | 257 | 2.0 | 2.0 | 0.00 | 0.00 | 0.00 | 29 | 1014.2 |
| 20260901221123 | 87 | 260 | 0.0 | 0.0 | 0.00 | 0.00 | 0.00 | 29 | 1014.3 |
| 20260901220622 | 87 | 351 | 2.0 | 2.0 | 0.00 | 0.00 | 0.00 | 28 | 1014.3 |
| 20260901220121 | 87 | 272 | 2.0 | 2.0 | 0.00 | 0.00 | 0.00 | 29 | 1014.3 |
| 20260901215619 | 87 | 292 | 3.0 | 3.0 | 0.00 | 0.00 | 0.00 | 29 | 1014.5 |
| 20260901215114 | 87 | 275 | 4.0 | 5.0 | 0.00 | 0.00 | 0.00 | 30 | 1014.6 |
| 20260901214613 | 87 | 248 | 3.0 | 3.0 | 0.00 | 0.00 | 0.00 | 30 | 1014.7 |
| 20260901214107 | 87 | 259 | 3.0 | 3.0 | 0.00 | 0.00 | 0.00 | 30 | 1014.6 |
| 20260901213601 | 86 | 210 | 3.0 | 3.0 | 0.00 | 0.00 | 0.00 | 30 | 1014.8 |
| 20260901213056 | 86 | 207 | 2.0 | 3.0 | 0.00 | 0.00 | 0.00 | 32 | 1014.8 |
| 20260901212555 | 86 | 235 | 1.0 | 2.0 | 0.00 | 0.00 | 0.00 | 30 | 1015.1 |
| 20260901212052 | 85 | 188 | 2.0 | 2.0 | 0.00 | 0.00 | 0.00 | 30 | 1015.1 |
| 20260901211547 | 85 | 226 | 2.0 | 2.0 | 0.00 | 0.00 | 0.00 | 30 | 1015.4 |
| 20260901211043 | 86 | 156 | 2.0 | 2.0 | 0.00 | 0.00 | 0.00 | 29 | 1015.5 |
| 20260901210538 | 85 | 220 | 2.0 | 2.0 | 0.00 | 0.00 | 0.00 | 29 | 1015.6 |
| 20260901210035 | 85 | 236 | 2.0 | 2.0 | 0.00 | 0.00 | 0.00 | 30 | 1015.8 |
| 20260901205529 | 84 | 177 | 4.0 | 5.0 | 0.00 | 0.00 | 0.00 | 30 | 1015.7 |
| 20260901205024 | 84 | 167 | 2.0 | 2.0 | 0.00 | 0.00 | 0.00 | 30 | 1016.3 |
| 20260901204521 | 84 | 243 | 0.0 | 0.0 | 0.00 | 0.00 | 0.00 | 31 | 1016.2 |
| 20260901204015 | 83 | 252 | 1.0 | 2.0 | 0.00 | 0.00 | 0.00 | 31 | 1015.9 |
| 20260901203510 | 82 | 174 | 3.0 | 5.0 | 0.00 | 0.00 | 0.00 | 34 | 1016.3 |
| 20260901203004 | 83 | 178 | 6.0 | 7.0 | 0.00 | 0.00 | 0.00 | 32 | 1016.6 |
| 20260901202500 | 81 | 214 | 3.0 | 3.0 | 0.00 | 0.00 | 0.00 | 34 | 1016.7 |
| 20260901201955 | 81 | 239 | 4.0 | 5.0 | 0.00 | 0.00 | 0.00 | 31 | 1016.7 |
| 20260901201450 | 82 | 208 | 4.0 | 5.0 | 0.00 | 0.00 | 0.00 | 30 | 1016.8 |
| 20260901200944 | 82 | 223 | 4.0 | 6.0 | 0.00 | 0.00 | 0.00 | 33 | 1016.9 |
| 20260901200439 | 81 | 188 | 1.0 | 2.0 | 0.00 | 0.00 | 0.00 | 33 | 1017.2 |
| 20260901195938 | 79 | 262 | 1.0 | 2.0 | 0.00 | 0.00 | 0.00 | 34 | 1017.2 |
| 20260901195437 | 79 | 251 | 2.0 | 2.0 | 0.00 | 0.00 | 0.00 | 34 | 1017.0 |
| 20260901194932 | 79 | 243 | 2.0 | 2.0 | 0.00 | 0.00 | 0.00 | 33 | 1017.5 |
| 20260901194427 | 77 | 326 | 0.0 | 0.0 | 0.00 | 0.00 | 0.00 | 37 | 1017.5 |
| 20260901193923 | 77 | 139 | 3.0 | 3.0 | 0.00 | 0.00 | 0.00 | 35 | 1017.5 |
| 20260901193422 | 78 | 179 | 3.0 | 5.0 | 0.00 | 0.00 | 0.00 | 33 | 1017.5 |
| 20260901192921 | 78 | 243 | 0.0 | 0.0 | 0.00 | 0.00 | 0.00 | 32 | 1017.7 |
| 20260901192418 | 77 | 240 | 2.0 | 2.0 | 0.00 | 0.00 | 0.00 | 33 | 1017.8 |
| 20260901191914 | 78 | 146 | 1.0 | 2.0 | 0.00 | 0.00 | 0.00 | 34 | 1017.7 |
| 20260901191409 | 77 | 57 | 2.0 | 2.0 | 0.00 | 0.00 | 0.00 | 35 | 1018.1 |
| 20260901190905 | 77 | 194 | 2.0 | 2.0 | 0.00 | 0.00 | 0.00 | 35 | 1018.3 |
| 20260901190405 | 76 | 282 | 0.0 | 0.0 | 0.00 | 0.00 | 0.00 | 36 | 1018.4 |
| 20260901185903 | 77 | 184 | 2.0 | 3.0 | 0.00 | 0.00 | 0.00 | 36 | 1018.3 |
| 20260901185402 | 76 | 224 | 0.0 | 1.0 | 0.00 | 0.00 | 0.00 | 36 | 1018.5 |
| 20260901184857 | 75 | 225 | 1.0 | 1.0 | 0.00 | 0.00 | 0.00 | 39 | 1018.6 |
| 20260901184353 | 74 | 244 | 2.0 | 3.0 | 0.00 | 0.00 | 0.00 | 38 | 1018.9 |
| 20260901183848 | 73 | 233 | 0.0 | 1.0 | 0.00 | 0.00 | 0.00 | 41 | 1019.1 |
| 20260901183347 | 73 | 273 | 0.0 | 0.0 | 0.00 | 0.00 | 0.00 | 41 | 1019.1 |
| 20260901182843 | 74 | 27 | 3.0 | 3.0 | 0.00 | 0.00 | 0.00 | 41 | 1019.1 |
| 20260901182343 | 72 | 295 | 1.0 | 2.0 | 0.00 | 0.00 | 0.00 | 42 | 1019.5 |
| 20260901181838 | 71 | 36 | 2.0 | 2.0 | 0.00 | 0.00 | 0.00 | 41 | 1019.6 |
| 20260901181333 | 71 | 303 | 3.0 | 3.0 | 0.00 | 0.00 | 0.00 | 41 | 1019.5 |
| 20260901180832 | 71 | 353 | 3.0 | 3.0 | 0.00 | 0.00 | 0.00 | 41 | 1019.6 |
| 20260901180331 | 70 | 298 | 2.0 | 2.0 | 0.00 | 0.00 | 0.00 | 42 | 1019.6 |
| 20260901175825 | 70 | 282 | 3.0 | 3.0 | 0.00 | 0.00 | 0.00 | 42 | 1019.7 |
| 20260901175319 | 70 | 262 | 1.0 | 1.0 | 0.00 | 0.00 | 0.00 | 44 | 1019.9 |
| 20260901174814 | 68 | 96 | 1.0 | 1.0 | 0.00 | 0.00 | 0.00 | 46 | 1020.0 |
| 20260901174310 | 67 | 358 | 3.0 | 3.0 | 0.00 | 0.00 | 0.00 | 46 | 1020.0 |
| 20260901173806 | 67 | 333 | 3.0 | 3.0 | 0.00 | 0.00 | 0.00 | 46 | 1020.2 |
| 20260901173301 | 67 | 35 | 0.0 | 0.0 | 0.00 | 0.00 | 0.00 | 50 | 1020.2 |
| 20260901172757 | 66 | 239 | 0.0 | 0.0 | 0.00 | 0.00 | 0.00 | 49 | 1020.5 |
| 20260901172256 | 66 | 83 | 0.0 | 2.0 | 0.00 | 0.00 | 0.00 | 48 | 1020.0 |
| 20260901171754 | 66 | 295 | 2.0 | 2.0 | 0.00 | 0.00 | 0.00 | 47 | 1020.4 |
| 20260901171253 | 65 | 293 | 1.0 | 2.0 | 0.00 | 0.00 | 0.00 | 50 | 1020.4 |
| 20260901170752 | 64 | 246 | 0.0 | 0.0 | 0.00 | 0.00 | 0.00 | 49 | 1020.5 |
| 20260901170247 | 64 | 89 | 2.0 | 2.0 | 0.00 | 0.00 | 0.00 | 50 | 1020.7 |
| 20260901165746 | 64 | 204 | 0.0 | 0.0 | 0.00 | 0.00 | 0.00 | 52 | 1020.5 |
| 20260901165240 | 64 | 273 | 0.0 | 0.0 | 0.00 | 0.00 | 0.00 | 54 | 1020.9 |
| 20260901164737 | 62 | 265 | 0.0 | 1.0 | 0.00 | 0.00 | 0.00 | 52 | 1020.8 |
| 20260901164233 | 62 | 312 | 2.0 | 2.0 | 0.00 | 0.00 | 0.00 | 54 | 1021.1 |
| 20260901163728 | 62 | 256 | 0.0 | 0.0 | 0.00 | 0.00 | 0.00 | 58 | 1021.0 |
| 20260901163227 | 60 | 219 | 1.0 | 1.0 | 0.00 | 0.00 | 0.00 | 58 | 1021.0 |
| 20260901162722 | 62 | 261 | 2.0 | 2.0 | 0.00 | 0.00 | 0.00 | 59 | 1021.0 |
| 20260901162221 | 60 | 272 | 0.0 | 0.0 | 0.00 | 0.00 | 0.00 | 60 | 1021.0 |
| 20260901161720 | 59 | 243 | 0.0 | 0.0 | 0.00 | 0.00 | 0.00 | 62 | 1021.3 |
| 20260901161215 | 58 | 254 | 1.0 | 1.0 | 0.00 | 0.00 | 0.00 | 62 | 1021.3 |
| 20260901160712 | 58 | 238 | 1.0 | 1.0 | 0.00 | 0.00 | 0.00 | 64 | 1021.2 |
| 20260901160207 | 58 | 226 | 0.0 | 0.0 | 0.00 | 0.00 | 0.00 | 66 | 1021.3 |
| 20260901155705 | 57 | 213 | 0.0 | 0.0 | 0.00 | 0.00 | 0.00 | 67 | 1021.7 |
| 20260901155201 | 56 | 262 | 0.0 | 0.0 | 0.00 | 0.00 | 0.00 | 70 | 1021.7 |
| 20260901154656 | 56 | 276 | 1.0 | 1.0 | 0.00 | 0.00 | 0.00 | 70 | 1021.8 |
| 20260901154151 | 53 | 238 | 0.0 | 0.0 | 0.00 | 0.00 | 0.00 | 77 | 1021.6 |
| 20260901153646 | 51 | 244 | 0.0 | 0.0 | 0.00 | 0.00 | 0.00 | 90 | 1021.6 |
| 20260901153146 | 51 | 257 | 0.0 | 0.0 | 0.00 | 0.00 | 0.00 | 93 | 1021.7 |
| 20260901152640 | 49 | 268 | 0.0 | 0.0 | 0.00 | 0.00 | 0.00 | 94 | 1021.7 |
| 20260901152139 | 48 | 287 | 1.0 | 1.0 | 0.00 | 0.00 | 0.00 | 95 | 1021.6 |
| 20260901151635 | 47 | 281 | 0.0 | 1.0 | 0.00 | 0.00 | 0.00 | 95 | 1021.7 |
| 20260901151134 | 48 | 262 | 0.0 | 0.0 | 0.00 | 0.00 | 0.00 | 95 | 1022.0 |
| 20260901150633 | 47 | 237 | 0.0 | 0.0 | 0.00 | 0.00 | 0.00 | 95 | 1021.9 |
| 20260901150132 | 47 | 226 | 0.0 | 0.0 | 0.00 | 0.00 | 0.00 | 95 | 1022.2 |
| 20260901145630 | 47 | 253 | 0.0 | 0.0 | 0.00 | 0.00 | 0.00 | 95 | 1022.2 |
| 20260901145130 | 47 | 261 | 0.0 | 0.0 | 0.00 | 0.00 | 0.00 | 95 | 1022.1 |
| 20260901144625 | 46 | 251 | 0.0 | 0.0 | 0.00 | 0.00 | 0.00 | 95 | 1022.0 |
| 20260901144121 | 46 | 258 | 0.0 | 0.0 | 0.00 | 0.00 | 0.00 | 95 | 1022.0 |
| 20260901143616 | 45 | 256 | 0.0 | 0.0 | 0.00 | 0.00 | 0.00 | 95 | 1022.1 |
| 20260901143112 | 44 | 253 | 0.0 | 0.0 | 0.00 | 0.00 | 0.00 | 95 | 1022.1 |
| 20260901142608 | 43 | 267 | 0.0 | 0.0 | 0.00 | 0.00 | 0.00 | 95 | 1022.0 |
| 20260901142107 | 42 | 260 | 0.0 | 0.0 | 0.00 | 0.00 | 0.00 | 95 | 1022.1 |
| 20260901141602 | 42 | 288 | 0.0 | 0.0 | 0.00 | 0.00 | 0.00 | 95 | 1022.0 |
| 20260901141056 | 42 | 289 | 0.0 | 0.0 | 0.00 | 0.00 | 0.00 | 95 | 1022.1 |
| 20260901140550 | 41 | 280 | 0.0 | 0.0 | 0.00 | 0.00 | 0.00 | 95 | 1022.0 |
| 20260901140050 | 40 | 276 | 0.0 | 0.0 | 0.00 | 0.00 | 0.00 | 94 | 1021.7 |
| 20260901135549 | 40 | 266 | 0.0 | 0.0 | 0.00 | 0.00 | 0.00 | 94 | 1021.9 |
| 20260901135044 | 40 | 260 | 0.0 | 0.0 | 0.00 | 0.00 | 0.00 | 94 | 1021.7 |
| 20260901134540 | 39 | 265 | 0.0 | 0.0 | 0.00 | 0.00 | 0.00 | 94 | 1021.7 |
| 20260901134035 | 39 | 251 | 0.0 | 0.0 | 0.00 | 0.00 | 0.00 | 94 | 1021.9 |
| 20260901133534 | 39 | 249 | 0.0 | 0.0 | 0.00 | 0.00 | 0.00 | 94 | 1021.6 |
| 20260901133033 | 39 | 247 | 0.0 | 0.0 | 0.00 | 0.00 | 0.00 | 94 | 1021.9 |
| 20260901132533 | 40 | 231 | 0.0 | 0.0 | 0.00 | 0.00 | 0.00 | 94 | 1021.9 |
| 20260901132027 | 40 | 245 | 0.0 | 0.0 | 0.00 | 0.00 | 0.00 | 94 | 1021.8 |
| 20260901131526 | 40 | 244 | 0.0 | 0.0 | 0.00 | 0.00 | 0.00 | 94 | 1021.6 |
| 20260901131017 | 41 | 257 | 0.0 | 0.0 | 0.00 | 0.00 | 0.00 | 94 | 1021.6 |
| 20260901130516 | 39 | 231 | 0.0 | 0.0 | 0.00 | 0.00 | 0.00 | 94 | 1021.5 |
| 20260901130015 | 39 | 230 | 0.0 | 0.0 | 0.00 | 0.00 | 0.00 | 94 | 1021.5 |
| 20260901125514 | 39 | 230 | 0.0 | 0.0 | 0.00 | 0.00 | 0.00 | 94 | 1021.7 |
| 20260901125009 | 39 | 230 | 0.0 | 0.0 | 0.00 | 0.00 | 0.00 | 94 | 1021.6 |
| 20260901124505 | 39 | 229 | 0.0 | 0.0 | 0.00 | 0.00 | 0.00 | 94 | 1021.6 |
| 20260901123958 | 39 | 231 | 0.0 | 0.0 | 0.00 | 0.00 | 0.00 | 94 | 1021.5 |
| 20260901123454 | 40 | 238 | 0.0 | 0.0 | 0.00 | 0.00 | 0.00 | 94 | 1021.3 |
| 20260901122951 | 39 | 258 | 0.0 | 0.0 | 0.00 | 0.00 | 0.00 | 94 | 1021.3 |
| 20260901122451 | 39 | 257 | 0.0 | 0.0 | 0.00 | 0.00 | 0.00 | 94 | 1021.2 |
| 20260901121951 | 39 | 258 | 0.0 | 0.0 | 0.00 | 0.00 | 0.00 | 94 | 1021.1 |
| 20260901121446 | 39 | 266 | 0.0 | 0.0 | 0.00 | 0.00 | 0.00 | 94 | 1021.1 |
| 20260901120940 | 40 | 278 | 0.0 | 0.0 | 0.00 | 0.00 | 0.00 | 94 | 1021.3 |
| 20260901120435 | 40 | 235 | 0.0 | 0.0 | 0.00 | 0.00 | 0.00 | 94 | 1021.3 |
| 20260901115931 | 40 | 230 | 0.0 | 0.0 | 0.00 | 0.00 | 0.00 | 94 | 1021.3 |
| 20260901115430 | 41 | 220 | 0.0 | 0.0 | 0.00 | 0.00 | 0.00 | 94 | 1021.6 |
| 20260901114929 | 40 | 243 | 0.0 | 0.0 | 0.00 | 0.00 | 0.00 | 94 | 1021.5 |
| 20260901114424 | 40 | 251 | 0.0 | 0.0 | 0.00 | 0.00 | 0.00 | 94 | 1021.2 |
| 20260901113922 | 40 | 251 | 0.0 | 0.0 | 0.00 | 0.00 | 0.00 | 94 | 1021.2 |
| 20260901113421 | 40 | 251 | 0.0 | 0.0 | 0.00 | 0.00 | 0.00 | 94 | 1021.3 |
| 20260901112916 | 40 | 252 | 0.0 | 0.0 | 0.00 | 0.00 | 0.00 | 94 | 1021.3 |
| 20260901112411 | 40 | 252 | 0.0 | 0.0 | 0.00 | 0.00 | 0.00 | 94 | 1021.6 |
| 20260901111906 | 41 | 250 | 0.0 | 0.0 | 0.00 | 0.00 | 0.00 | 94 | 1021.3 |
| 20260901111404 | 42 | 250 | 0.0 | 0.0 | 0.00 | 0.00 | 0.00 | 94 | 1021.2 |
| 20260901110903 | 42 | 250 | 0.0 | 0.0 | 0.00 | 0.00 | 0.00 | 94 | 1021.3 |
| 20260901110359 | 43 | 203 | 1.0 | 1.0 | 0.00 | 0.00 | 0.00 | 94 | 1021.5 |
| 20260901105855 | 43 | 186 | 1.0 | 1.0 | 0.00 | 0.00 | 0.00 | 94 | 1021.2 |
| 20260901105350 | 44 | 197 | 1.0 | 2.0 | 0.00 | 0.00 | 0.00 | 94 | 1021.2 |
| 20260901104846 | 43 | 229 | 0.0 | 0.0 | 0.00 | 0.00 | 0.00 | 94 | 1021.2 |
| 20260901104341 | 43 | 230 | 0.0 | 0.0 | 0.00 | 0.00 | 0.00 | 94 | 1021.2 |
| 20260901103837 | 43 | 230 | 0.0 | 0.0 | 0.00 | 0.00 | 0.00 | 94 | 1021.5 |
| 20260901103336 | 42 | 221 | 0.0 | 0.0 | 0.00 | 0.00 | 0.00 | 94 | 1021.0 |
| 20260901102831 | 41 | 239 | 0.0 | 0.0 | 0.00 | 0.00 | 0.00 | 94 | 1021.2 |
| 20260901102326 | 41 | 239 | 0.0 | 0.0 | 0.00 | 0.00 | 0.00 | 93 | 1021.0 |
| 20260901101822 | 41 | 246 | 0.0 | 0.0 | 0.00 | 0.00 | 0.00 | 93 | 1021.1 |
| 20260901101321 | 42 | 236 | 0.0 | 0.0 | 0.00 | 0.00 | 0.00 | 93 | 1021.1 |
| 20260901100821 | 42 | 225 | 0.0 | 0.0 | 0.00 | 0.00 | 0.00 | 93 | 1020.9 |
| 20260901100316 | 42 | 206 | 1.0 | 1.0 | 0.00 | 0.00 | 0.00 | 93 | 1021.0 |
| 20260901095814 | 44 | 204 | 1.0 | 1.0 | 0.00 | 0.00 | 0.00 | 93 | 1020.9 |
| 20260901095312 | 44 | 226 | 0.0 | 0.0 | 0.00 | 0.00 | 0.00 | 93 | 1021.0 |
| 20260901094807 | 43 | 237 | 0.0 | 0.0 | 0.00 | 0.00 | 0.00 | 93 | 1021.0 |
| 20260901094302 | 43 | 237 | 0.0 | 0.0 | 0.00 | 0.00 | 0.00 | 93 | 1021.1 |
| 20260901093756 | 43 | 237 | 0.0 | 0.0 | 0.00 | 0.00 | 0.00 | 93 | 1020.9 |
| 20260901093255 | 43 | 246 | 0.0 | 0.0 | 0.00 | 0.00 | 0.00 | 93 | 1021.0 |
| 20260901092751 | 45 | 245 | 0.0 | 0.0 | 0.00 | 0.00 | 0.00 | 93 | 1020.9 |
| 20260901092247 | 44 | 185 | 1.0 | 1.0 | 0.00 | 0.00 | 0.00 | 93 | 1021.0 |
| 20260901091742 | 44 | 229 | 0.0 | 0.0 | 0.00 | 0.00 | 0.00 | 93 | 1020.9 |
| 20260901091238 | 43 | 240 | 0.0 | 0.0 | 0.00 | 0.00 | 0.00 | 93 | 1021.0 |
| 20260901090732 | 43 | 245 | 0.0 | 0.0 | 0.00 | 0.00 | 0.00 | 93 | 1020.8 |
| 20260901090227 | 43 | 247 | 0.0 | 0.0 | 0.00 | 0.00 | 0.00 | 92 | 1021.0 |
| 20260901085723 | 43 | 248 | 0.0 | 0.0 | 0.00 | 0.00 | 0.00 | 92 | 1020.9 |
| 20260901085218 | 43 | 248 | 0.0 | 0.0 | 0.00 | 0.00 | 0.00 | 92 | 1020.9 |
| 20260901084715 | 43 | 247 | 0.0 | 0.0 | 0.00 | 0.00 | 0.00 | 92 | 1021.0 |
| 20260901084211 | 44 | 271 | 0.0 | 0.0 | 0.00 | 0.00 | 0.00 | 92 | 1020.9 |
| 20260901083705 | 45 | 249 | 0.0 | 0.0 | 0.00 | 0.00 | 0.00 | 92 | 1021.0 |
| 20260901083204 | 46 | 250 | 0.0 | 0.0 | 0.00 | 0.00 | 0.00 | 92 | 1021.1 |
| 20260901082703 | 46 | 227 | 0.0 | 0.0 | 0.00 | 0.00 | 0.00 | 92 | 1021.1 |
| 20260901082159 | 45 | 227 | 0.0 | 0.0 | 0.00 | 0.00 | 0.00 | 92 | 1021.1 |
| 20260901081655 | 45 | 227 | 0.0 | 0.0 | 0.00 | 0.00 | 0.00 | 92 | 1021.1 |
| 20260901081154 | 46 | 227 | 0.0 | 0.0 | 0.00 | 0.00 | 0.00 | 92 | 1021.2 |
| 20260901080649 | 46 | 227 | 0.0 | 0.0 | 0.00 | 0.00 | 0.00 | 92 | 1021.0 |
| 20260901080148 | 45 | 223 | 0.0 | 0.0 | 0.00 | 0.00 | 0.00 | 92 | 1020.9 |
| 20260901075643 | 44 | 244 | 0.0 | 0.0 | 0.00 | 0.00 | 0.00 | 91 | 1020.9 |
| 20260901075143 | 45 | 245 | 0.0 | 0.0 | 0.00 | 0.00 | 0.00 | 91 | 1020.8 |
| 20260901074642 | 46 | 227 | 0.0 | 0.0 | 0.00 | 0.00 | 0.00 | 91 | 1020.7 |
| 20260901074137 | 47 | 242 | 0.0 | 0.0 | 0.00 | 0.00 | 0.00 | 91 | 1021.0 |
| 20260901073634 | 47 | 235 | 0.0 | 0.0 | 0.00 | 0.00 | 0.00 | 91 | 1020.8 |
| 20260901073129 | 46 | 246 | 0.0 | 0.0 | 0.00 | 0.00 | 0.00 | 91 | 1021.0 |
| 20260901072624 | 46 | 237 | 0.0 | 0.0 | 0.00 | 0.00 | 0.00 | 90 | 1021.1 |
| 20260901072119 | 47 | 237 | 0.0 | 0.0 | 0.00 | 0.00 | 0.00 | 90 | 1020.7 |
| 20260901071614 | 46 | 228 | 0.0 | 0.0 | 0.00 | 0.00 | 0.00 | 91 | 1020.7 |
| 20260901071113 | 46 | 247 | 0.0 | 0.0 | 0.00 | 0.00 | 0.00 | 90 | 1020.8 |
| 20260901070607 | 47 | 243 | 0.0 | 0.0 | 0.00 | 0.00 | 0.00 | 90 | 1020.7 |
| 20260901070103 | 47 | 251 | 0.0 | 0.0 | 0.00 | 0.00 | 0.00 | 90 | 1020.9 |
| 20260901065556 | 48 | 253 | 0.0 | 0.0 | 0.00 | 0.00 | 0.00 | 89 | 1020.8 |
| 20260901065051 | 48 | 226 | 0.0 | 0.0 | 0.00 | 0.00 | 0.00 | 90 | 1020.6 |
| 20260901064548 | 48 | 249 | 0.0 | 0.0 | 0.00 | 0.00 | 0.00 | 89 | 1020.7 |
| 20260901064044 | 49 | 216 | 1.0 | 1.0 | 0.00 | 0.00 | 0.00 | 89 | 1020.7 |
| 20260901063541 | 49 | 214 | 0.0 | 1.0 | 0.00 | 0.00 | 0.00 | 89 | 1020.8 |
| 20260901063037 | 49 | 175 | 2.0 | 2.0 | 0.00 | 0.00 | 0.00 | 88 | 1020.7 |
| 20260901062532 | 50 | 234 | 0.0 | 0.0 | 0.00 | 0.00 | 0.00 | 88 | 1020.6 |
| 20260901062028 | 50 | 242 | 0.0 | 0.0 | 0.00 | 0.00 | 0.00 | 87 | 1020.7 |
| 20260901061524 | 50 | 191 | 2.0 | 2.0 | 0.00 | 0.00 | 0.00 | 87 | 1020.6 |
| 20260901061019 | 51 | 204 | 1.0 | 1.0 | 0.00 | 0.00 | 0.00 | 85 | 1020.6 |
| 20260901060513 | 51 | 232 | 0.0 | 0.0 | 0.00 | 0.00 | 0.00 | 86 | 1020.7 |
| 20260901060008 | 51 | 205 | 1.0 | 1.0 | 0.00 | 0.00 | 0.00 | 84 | 1020.5 |
| 20260901055504 | 52 | 225 | 0.0 | 0.0 | 0.00 | 0.00 | 0.00 | 82 | 1020.6 |
| 20260901055000 | 52 | 221 | 0.0 | 0.0 | 0.00 | 0.00 | 0.00 | 81 | 1020.4 |
| 20260901054457 | 53 | 190 | 2.0 | 2.0 | 0.00 | 0.00 | 0.00 | 80 | 1020.5 |
| 20260901053953 | 53 | 182 | 1.0 | 1.0 | 0.00 | 0.00 | 0.00 | 79 | 1020.4 |
| 20260901053448 | 52 | 182 | 3.0 | 3.0 | 0.00 | 0.00 | 0.00 | 82 | 1020.6 |
| 20260901052943 | 52 | 200 | 1.0 | 1.0 | 0.00 | 0.00 | 0.00 | 83 | 1020.4 |
| 20260901052439 | 51 | 172 | 3.0 | 3.0 | 0.00 | 0.00 | 0.00 | 83 | 1020.5 |
| 20260901051932 | 51 | 243 | 0.0 | 1.0 | 0.00 | 0.00 | 0.00 | 83 | 1020.5 |
| 20260901051427 | 51 | 245 | 1.0 | 2.0 | 0.00 | 0.00 | 0.00 | 84 | 1020.5 |
| 20260901050922 | 52 | 231 | 0.0 | 0.0 | 0.00 | 0.00 | 0.00 | 83 | 1020.5 |
| 20260901050418 | 53 | 212 | 2.0 | 2.0 | 0.00 | 0.00 | 0.00 | 83 | 1020.5 |
| 20260901045917 | 53 | 187 | 2.0 | 2.0 | 0.00 | 0.00 | 0.00 | 82 | 1020.6 |
| 20260901045412 | 53 | 205 | 1.0 | 1.0 | 0.00 | 0.00 | 0.00 | 82 | 1020.5 |
| 20260901044907 | 53 | 204 | 1.0 | 1.0 | 0.00 | 0.00 | 0.00 | 81 | 1020.2 |
| 20260901044403 | 53 | 226 | 0.0 | 0.0 | 0.00 | 0.00 | 0.00 | 81 | 1020.2 |
| 20260901043859 | 52 | 193 | 2.0 | 2.0 | 0.00 | 0.00 | 0.00 | 83 | 1020.6 |
| 20260901043355 | 52 | 228 | 0.0 | 0.0 | 0.00 | 0.00 | 0.00 | 82 | 1020.2 |
| 20260901042855 | 53 | 207 | 1.0 | 1.0 | 0.00 | 0.00 | 0.00 | 80 | 1020.4 |
| 20260901042349 | 53 | 219 | 0.0 | 1.0 | 0.00 | 0.00 | 0.00 | 80 | 1020.4 |
| 20260901041845 | 53 | 224 | 0.0 | 0.0 | 0.00 | 0.00 | 0.00 | 81 | 1020.4 |
| 20260901041339 | 54 | 236 | 0.0 | 0.0 | 0.00 | 0.00 | 0.00 | 80 | 1020.2 |
| 20260901040834 | 54 | 240 | 0.0 | 0.0 | 0.00 | 0.00 | 0.00 | 80 | 1020.4 |
| 20260901040333 | 54 | 241 | 0.0 | 0.0 | 0.00 | 0.00 | 0.00 | 78 | 1020.4 |
| 20260901035832 | 54 | 256 | 0.0 | 0.0 | 0.00 | 0.00 | 0.00 | 77 | 1020.1 |
| 20260901035331 | 55 | 238 | 0.0 | 0.0 | 0.00 | 0.00 | 0.00 | 77 | 1020.4 |
| 20260901034830 | 55 | 230 | 0.0 | 0.0 | 0.00 | 0.00 | 0.00 | 77 | 1020.4 |
| 20260901034326 | 56 | 225 | 0.0 | 0.0 | 0.00 | 0.00 | 0.00 | 76 | 1020.2 |
| 20260901033825 | 55 | 229 | 0.0 | 0.0 | 0.00 | 0.00 | 0.00 | 78 | 1020.2 |
| 20260901033325 | 56 | 232 | 0.0 | 0.0 | 0.00 | 0.00 | 0.00 | 77 | 1020.1 |
| 20260901032823 | 56 | 238 | 0.0 | 0.0 | 0.00 | 0.00 | 0.00 | 76 | 1020.1 |
| 20260901032323 | 57 | 249 | 0.0 | 0.0 | 0.00 | 0.00 | 0.00 | 76 | 1020.1 |
| 20260901031818 | 57 | 227 | 0.0 | 0.0 | 0.00 | 0.00 | 0.00 | 75 | 1020.0 |
| 20260901031314 | 57 | 228 | 0.0 | 0.0 | 0.00 | 0.00 | 0.00 | 75 | 1020.1 |
| 20260901030813 | 58 | 226 | 0.0 | 0.0 | 0.00 | 0.00 | 0.00 | 74 | 1020.2 |
| 20260901030309 | 58 | 231 | 0.0 | 0.0 | 0.00 | 0.00 | 0.00 | 75 | 1020.1 |
| 20260901025808 | 58 | 242 | 0.0 | 0.0 | 0.00 | 0.00 | 0.00 | 73 | 1020.1 |
| 20260901025305 | 59 | 229 | 0.0 | 0.0 | 0.00 | 0.00 | 0.00 | 72 | 1020.1 |
| 20260901024758 | 60 | 234 | 0.0 | 0.0 | 0.00 | 0.00 | 0.00 | 71 | 1020.1 |
| 20260901024257 | 60 | 234 | 0.0 | 0.0 | 0.00 | 0.00 | 0.00 | 65 | 1019.7 |
| 20260901023755 | 60 | 229 | 0.0 | 0.0 | 0.00 | 0.00 | 0.00 | 64 | 1020.0 |
| 20260901023250 | 61 | 242 | 0.0 | 0.0 | 0.00 | 0.00 | 0.00 | 62 | 1019.7 |
| 20260901022746 | 62 | 248 | 0.0 | 0.0 | 0.00 | 0.00 | 0.00 | 60 | 1019.6 |
| 20260901022241 | 62 | 246 | 0.0 | 0.0 | 0.00 | 0.00 | 0.00 | 58 | 1019.7 |
| 20260901021736 | 64 | 237 | 0.0 | 0.0 | 0.00 | 0.00 | 0.00 | 60 | 1019.7 |
| 20260901021232 | 66 | 235 | 0.0 | 0.0 | 0.00 | 0.00 | 0.00 | 60 | 1019.6 |
| 20260901020727 | 66 | 257 | 0.0 | 0.0 | 0.00 | 0.00 | 0.00 | 48 | 1019.5 |
| 20260901020222 | 67 | 262 | 0.0 | 0.0 | 0.00 | 0.00 | 0.00 | 48 | 1019.7 |
| 20260901015717 | 68 | 254 | 0.0 | 0.0 | 0.00 | 0.00 | 0.00 | 48 | 1019.4 |
| 20260901015213 | 69 | 259 | 1.0 | 1.0 | 0.00 | 0.00 | 0.00 | 45 | 1019.4 |
| 20260901014712 | 70 | 272 | 1.0 | 1.0 | 0.00 | 0.00 | 0.00 | 42 | 1019.6 |
| 20260901014209 | 72 | 318 | 1.0 | 1.0 | 0.00 | 0.00 | 0.00 | 39 | 1019.2 |
| 20260901013704 | 73 | 331 | 2.0 | 2.0 | 0.00 | 0.00 | 0.00 | 39 | 1019.6 |
| 20260901013200 | 75 | 335 | 3.0 | 3.0 | 0.00 | 0.00 | 0.00 | 38 | 1019.6 |
| 20260901012655 | 76 | 335 | 1.0 | 2.0 | 0.00 | 0.00 | 0.00 | 39 | 1019.5 |
| 20260901012149 | 77 | 330 | 4.0 | 5.0 | 0.00 | 0.00 | 0.00 | 36 | 1019.6 |
| 20260901011645 | 78 | 330 | 2.0 | 2.0 | 0.00 | 0.00 | 0.00 | 37 | 1019.4 |
| 20260901011144 | 79 | 284 | 2.0 | 2.0 | 0.00 | 0.00 | 0.00 | 34 | 1019.5 |
| 20260901010639 | 79 | 16 | 5.0 | 5.0 | 0.00 | 0.00 | 0.00 | 32 | 1019.5 |
| 20260901010139 | 79 | 351 | 4.0 | 5.0 | 0.00 | 0.00 | 0.00 | 32 | 1019.7 |
| 20260901005638 | 80 | 337 | 3.0 | 3.0 | 0.00 | 0.00 | 0.00 | 31 | 1019.5 |
| 20260901005134 | 80 | 342 | 3.0 | 3.0 | 0.00 | 0.00 | 0.00 | 29 | 1019.4 |
| 20260901004633 | 80 | 332 | 4.0 | 5.0 | 0.00 | 0.00 | 0.00 | 28 | 1019.6 |
| 20260901004128 | 81 | 339 | 4.0 | 5.0 | 0.00 | 0.00 | 0.00 | 28 | 1020.0 |
| 20260901003623 | 81 | 290 | 1.0 | 1.0 | 0.00 | 0.00 | 0.00 | 28 | 1019.6 |
| 20260901003122 | 81 | 318 | 3.0 | 5.0 | 0.00 | 0.00 | 0.00 | 27 | 1019.8 |
| 20260901002622 | 81 | 282 | 2.0 | 2.0 | 0.00 | 0.00 | 0.00 | 28 | 1019.9 |
| 20260901002116 | 81 | 297 | 2.0 | 2.0 | 0.00 | 0.00 | 0.00 | 27 | 1019.9 |
| 20260901001611 | 81 | 339 | 2.0 | 3.0 | 0.00 | 0.00 | 0.00 | 27 | 1020.1 |
| 20260901001107 | 81 | 283 | 0.0 | 0.0 | 0.00 | 0.00 | 0.00 | 26 | 1020.1 |
| 20260901000602 | 82 | 257 | 1.0 | 1.0 | 0.00 | 0.00 | 0.00 | 26 | 1020.2 |
| 20260901000057 | 82 | 342 | 1.0 | 2.0 | 0.00 | 0.00 | 0.00 | 26 | 1020.0 |
| 20260831235550 | 82 | 341 | 3.0 | 3.0 | 0.00 | 0.00 | 0.00 | 27 | 1020.2 |
| 20260831235047 | 81 | 237 | 0.0 | 0.0 | 0.00 | 0.00 | 0.00 | 27 | 1020.5 |
| 20260831234540 | 82 | 267 | 2.0 | 2.0 | 0.00 | 0.00 | 0.00 | 26 | 1020.4 |